QPF
0.07 0.06 0.06 0.05 0.05 0.06 0.05 0.04 0.04 0.04 0.03 0.02 0.02 0.02 0.02 0.02 0.01 0.01 0.01 0.01 0.01 0.01 0.01 0.01 0.01 0.01 0.01 0.02 0.02 0.03 0.05 0.06 0.07 0.07 0.07 0.06 0.06 0.06
0.10 0.09 0.08 0.08 0.08 0.08 0.08 0.07 0.06 0.05 0.04 0.02 0.02 0.01 0.01 0.01 0.01 0.01 0.01 0.01 0.01 0.01 0.02 0.01 0.01 0.01 0.01 0.01 0.02 0.02 0.03 0.05 0.07 0.09 0.08 0.08 0.07 0.06
0.10 0.09 0.08 0.08 0.08 0.07 0.07 0.07 0.05 0.03 0.03 0.02 0.01 0.01 0.01 0.01 0.01 0.01 0.01 0.01 0.01 0.02 0.02 0.02 0.02 0.01 0.01 0.01 0.02 0.02 0.02 0.03 0.05 0.08 0.10 0.09 0.08 0.08
0.06 0.07 0.07 0.07 0.07 0.06 0.05 0.04 0.04 0.03 0.03 0.02 0.02 0.01 0.01 0.01 0.02 0.02 0.02 0.01 0.01 0.02 0.02 0.02 0.02 0.02 0.01 0.01 0.02 0.02 0.02 0.03 0.04 0.05 0.08 0.10 0.10 0.08
0.05 0.06 0.07 0.08 0.09 0.08 0.07 0.05 0.04 0.04 0.04 0.04 0.03 0.02 0.02 0.02 0.02 0.03 0.03 0.02 0.02 0.02 0.02 0.03 0.03 0.02 0.02 0.02 0.02 0.02 0.02 0.02 0.03 0.04 0.05 0.07 0.09 0.10
0.04 0.05 0.06 0.07 0.07 0.08 0.09 0.08 0.07 0.07 0.06 0.06 0.05 0.04 0.03 0.03 0.03 0.03 0.03 0.03 0.03 0.03 0.04 0.04 0.04 0.03 0.03 0.03 0.02 0.02 0.02 0.02 0.03 0.04 0.04 0.05 0.06 0.07
0.04 0.04 0.05 0.07 0.07 0.07 0.07 0.07 0.08 0.08 0.08 0.08 0.07 0.06 0.05 0.04 0.03 0.03 0.03 0.03 0.03 0.04 0.05 0.05 0.04 0.04 0.04 0.03 0.03 0.04 0.04 0.04 0.04 0.04 0.05 0.06 0.06 0.06
0.05 0.05 0.05 0.06 0.06 0.07 0.07 0.07 0.07 0.08 0.08 0.08 0.07 0.06 0.05 0.04 0.03 0.03 0.03 0.03 0.03 0.03 0.05 0.06 0.05 0.04 0.05 0.04 0.04 0.04 0.06 0.06 0.05 0.05 0.05 0.05 0.06 0.06
0.05 0.05 0.05 0.05 0.05 0.04 0.06 0.07 0.07 0.07 0.07 0.07 0.06 0.04 0.04 0.04 0.03 0.03 0.02 0.03 0.03 0.03 0.04 0.05 0.05 0.04 0.04 0.05 0.04 0.04 0.04 0.05 0.05 0.05 0.05 0.05 0.05 0.06
0.05 0.04 0.04 0.04 0.04 0.05 0.05 0.06 0.05 0.06 0.06 0.05 0.04 0.04 0.03 0.03 0.02 0.02 0.02 0.03 0.03 0.03 0.03 0.04 0.04 0.04 0.04 0.04 0.05 0.05 0.05 0.05 0.05 0.05 0.05 0.05 0.05 0.05
0.05 0.04 0.04 0.05 0.06 0.06 0.06 0.07 0.07 0.06 0.06 0.05 0.04 0.04 0.04 0.03 0.03 0.03 0.04 0.04 0.03 0.03 0.02 0.03 0.04 0.04 0.03 0.04 0.04 0.04 0.04 0.05 0.05 0.04 0.04 0.04 0.04 0.04
0.05 0.04 0.06 0.06 0.07 0.06 0.05 0.06 0.07 0.08 0.07 0.05 0.05 0.04 0.04 0.04 0.04 0.03 0.03 0.03 0.03 0.02 0.02 0.02 0.03 0.03 0.04 0.03 0.03 0.04 0.04 0.04 0.04 0.03 0.03 0.03 0.03 0.03
0.05 0.05 0.06 0.06 0.06 0.06 0.05 0.05 0.07 0.08 0.07 0.06 0.04 0.04 0.04 0.04 0.03 0.03 0.03 0.02 0.02 0.02 0.01 0.02 0.03 0.03 0.04 0.04 0.03 0.04 0.04 0.04 0.04 0.03 0.02 0.03 0.03 0.03
0.04 0.05 0.06 0.07 0.06 0.06 0.06 0.06 0.07 0.07 0.07 0.07 0.06 0.05 0.03 0.03 0.03 0.03 0.03 0.03 0.02 0.02 0.02 0.02 0.03 0.03 0.04 0.04 0.04 0.03 0.04 0.04 0.03 0.03 0.02 0.02 0.02 0.02
0.04 0.05 0.05 0.06 0.06 0.06 0.07 0.07 0.06 0.06 0.06 0.07 0.06 0.05 0.04 0.03 0.03 0.03 0.04 0.04 0.03 0.03 0.03 0.03 0.03 0.03 0.03 0.04 0.03 0.03 0.03 0.03 0.03 0.03 0.03 0.02 0.02 0.02
0.04 0.04 0.04 0.04 0.04 0.04 0.05 0.06 0.05 0.05 0.05 0.05 0.05 0.05 0.05 0.04 0.04 0.03 0.04 0.04 0.04 0.04 0.03 0.03 0.03 0.03 0.03 0.03 0.03 0.03 0.03 0.03 0.03 0.03 0.03 0.03 0.02 0.02
0.03 0.03 0.04 0.04 0.05 0.05 0.05 0.05 0.05 0.05 0.05 0.05 0.04 0.05 0.05 0.05 0.04 0.04 0.04 0.04 0.04 0.03 0.03 0.03 0.03 0.03 0.03 0.03 0.03 0.03 0.02 0.02 0.03 0.03 0.03 0.03 0.02 0.02
0.03 0.03 0.03 0.03 0.04 0.04 0.05 0.05 0.05 0.05 0.05 0.05 0.05 0.05 0.05 0.05 0.06 0.06 0.05 0.04 0.04 0.04 0.03 0.03 0.03 0.03 0.03 0.03 0.03 0.02 0.02 0.02 0.02 0.03 0.03 0.03 0.03 0.02
0.03 0.03 0.03 0.03 0.04 0.04 0.04 0.04 0.04 0.05 0.05 0.05 0.05 0.05 0.05 0.05 0.06 0.07 0.07 0.06 0.05 0.04 0.04 0.03 0.03 0.04 0.04 0.03 0.02 0.02 0.02 0.02 0.02 0.02 0.02 0.03 0.03 0.02
0.03 0.03 0.04 0.03 0.03 0.04 0.04 0.05 0.04 0.04 0.05 0.05 0.04 0.04 0.04 0.04 0.04 0.05 0.05 0.05 0.05 0.04 0.04 0.03 0.03 0.04 0.04 0.04 0.03 0.02 0.01 0.02 0.02 0.02 0.02 0.02 0.02 0.02
0.03 0.04 0.04 0.04 0.03 0.03 0.03 0.04 0.04 0.04 0.04 0.04 0.04 0.03 0.03 0.04 0.03 0.03 0.03 0.04 0.04 0.04 0.04 0.03 0.03 0.03 0.03 0.03 0.02 0.02 0.01 0.01 0.02 0.02 0.02 0.02 0.01 0.01
0.04 0.04 0.04 0.04 0.03 0.03 0.03 0.03 0.03 0.04 0.03 0.03 0.03 0.03 0.03 0.03 0.03 0.03 0.03 0.03 0.03 0.04 0.04 0.04 0.03 0.03 0.02 0.03 0.03 0.02 0.02 0.01 0.01 0.02 0.02 0.02 0.02 0.02
0.04 0.04 0.04 0.04 0.04 0.03 0.03 0.03 0.03 0.03 0.03 0.03 0.03 0.03 0.03 0.03 0.03 0.03 0.03 0.03 0.03 0.03 0.04 0.05 0.04 0.03 0.02 0.02 0.02 0.02 0.02 0.02 0.02 0.02 0.02 0.02 0.02 0.02
MSLP
1027.68 1027.57 1027.46 1027.33 1027.13 1026.82 1026.37 1025.79 1025.08 1024.26 1023.37 1022.45 1021.53 1020.64 1019.79 1018.97 1018.16 1017.33 1016.45 1015.50 1014.47 1013.36 1012.18 1010.97 1009.77 1008.62 1007.57 1006.62 1005.80 1005.10 1004.49 1003.92 1003.36 1002.77 1002.11 1001.37 1000.57 999.73
1027.59 1027.48 1027.39 1027.27 1027.10 1026.81 1026.40 1025.84 1025.13 1024.31 1023.39 1022.43 1021.45 1020.49 1019.55 1018.64 1017.74 1016.83 1015.89 1014.88 1013.79 1012.62 1011.39 1010.13 1008.87 1007.65 1006.53 1005.54 1004.68 1003.97 1003.37 1002.85 1002.37 1001.88 1001.33 1000.69 999.97 999.19
1027.46 1027.35 1027.25 1027.15 1026.98 1026.73 1026.34 1025.82 1025.15 1024.35 1023.44 1022.46 1021.44 1020.41 1019.38 1018.38 1017.38 1016.37 1015.34 1014.26 1013.11 1011.90 1010.63 1009.33 1008.04 1006.79 1005.63 1004.59 1003.70 1002.96 1002.36 1001.87 1001.43 1001.01 1000.55 1000.01 999.38 998.66
1027.35 1027.22 1027.11 1027.00 1026.84 1026.61 1026.26 1025.78 1025.16 1024.40 1023.52 1022.55 1021.51 1020.43 1019.33 1018.22 1017.12 1016.01 1014.88 1013.72 1012.52 1011.26 1009.97 1008.65 1007.34 1006.07 1004.88 1003.81 1002.87 1002.10 1001.47 1000.96 1000.54 1000.16 999.76 999.30 998.75 998.12
1027.26 1027.11 1026.98 1026.85 1026.69 1026.47 1026.16 1025.73 1025.17 1024.47 1023.64 1022.70 1021.66 1020.55 1019.39 1018.21 1017.00 1015.79 1014.56 1013.32 1012.05 1010.76 1009.45 1008.12 1006.80 1005.51 1004.29 1003.17 1002.19 1001.35 1000.66 1000.10 999.65 999.27 998.90 998.51 998.05 997.51
1027.19 1027.02 1026.86 1026.70 1026.53 1026.31 1026.02 1025.64 1025.15 1024.53 1023.77 1022.88 1021.87 1020.76 1019.56 1018.31 1017.03 1015.72 1014.41 1013.09 1011.76 1010.43 1009.09 1007.74 1006.40 1005.09 1003.83 1002.65 1001.58 1000.65 999.86 999.21 998.69 998.27 997.91 997.56 997.18 996.74
1027.12 1026.92 1026.72 1026.53 1026.33 1026.10 1025.84 1025.50 1025.07 1024.53 1023.85 1023.03 1022.07 1020.99 1019.79 1018.51 1017.17 1015.79 1014.40 1013.01 1011.63 1010.25 1008.88 1007.50 1006.13 1004.77 1003.44 1002.17 1000.99 999.92 998.99 998.21 997.59 997.10 996.71 996.39 996.08 995.77
1027.02 1026.79 1026.55 1026.31 1026.08 1025.84 1025.58 1025.27 1024.90 1024.43 1023.84 1023.11 1022.22 1021.18 1020.01 1018.73 1017.36 1015.95 1014.51 1013.07 1011.63 1010.21 1008.79 1007.37 1005.94 1004.50 1003.07 1001.67 1000.34 999.10 998.00 997.05 996.29 995.69 995.26 994.95 994.71 994.52
1026.89 1026.62 1026.34 1026.05 1025.78 1025.51 1025.24 1024.96 1024.63 1024.23 1023.72 1023.07 1022.26 1021.29 1020.17 1018.91 1017.56 1016.13 1014.67 1013.19 1011.72 1010.25 1008.78 1007.29 1005.78 1004.24 1002.69 1001.13 999.61 998.17 996.86 995.73 994.79 994.07 993.56 993.24 993.07 992.99
1026.72 1026.42 1026.10 1025.77 1025.45 1025.15 1024.86 1024.58 1024.28 1023.92 1023.47 1022.90 1022.17 1021.27 1020.21 1019.00 1017.68 1016.27 1014.81 1013.32 1011.83 1010.32 1008.79 1007.24 1005.63 1003.98 1002.28 1000.55 998.83 997.18 995.65 994.30 993.17 992.30 991.70 991.35 991.20 991.21
1026.53 1026.21 1025.86 1025.49 1025.13 1024.80 1024.49 1024.20 1023.90 1023.56 1023.15 1022.63 1021.96 1021.12 1020.13 1018.98 1017.70 1016.33 1014.89 1013.41 1011.91 1010.38 1008.81 1007.18 1005.49 1003.72 1001.88 999.98 998.07 996.21 994.46 992.90 991.58 990.55 989.82 989.41 989.25 989.31
1026.35 1026.03 1025.66 1025.27 1024.89 1024.52 1024.18 1023.87 1023.55 1023.21 1022.81 1022.31 1021.68 1020.89 1019.94 1018.85 1017.62 1016.30 1014.89 1013.44 1011.94 1010.41 1008.81 1007.14 1005.38 1003.52 1001.55 999.51 997.44 995.40 993.46 991.70 990.20 989.00 988.14 987.61 987.40 987.45
1026.20 1025.89 1025.53 1025.14 1024.75 1024.37 1024.00 1023.66 1023.31 1022.95 1022.53 1022.02 1021.39 1020.62 1019.70 1018.65 1017.47 1016.19 1014.83 1013.41 1011.94 1010.41 1008.82 1007.13 1005.34 1003.42 1001.38 999.25 997.06 994.89 992.80 990.89 989.22 987.86 986.84 986.19 985.86 985.83
1026.06 1025.79 1025.47 1025.11 1024.73 1024.35 1023.97 1023.60 1023.22 1022.81 1022.35 1021.81 1021.16 1020.38 1019.47 1018.43 1017.29 1016.05 1014.73 1013.36 1011.93 1010.44 1008.87 1007.20 1005.41 1003.49 1001.43 999.27 997.03 994.79 992.62 990.60 988.80 987.30 986.13 985.32 984.84 984.68
1025.93 1025.72 1025.46 1025.15 1024.81 1024.45 1024.08 1023.69 1023.28 1022.83 1022.32 1021.73 1021.04 1020.23 1019.31 1018.27 1017.14 1015.93 1014.65 1013.33 1011.95 1010.51 1008.99 1007.38 1005.64 1003.77 1001.76 999.63 997.41 995.18 992.98 990.92 989.04 987.43 986.12 985.15 984.50 984.16
1025.79 1025.66 1025.47 1025.24 1024.96 1024.64 1024.29 1023.90 1023.47 1022.98 1022.42 1021.78 1021.04 1020.20 1019.25 1018.20 1017.08 1015.89 1014.65 1013.37 1012.04 1010.67 1009.22 1007.69 1006.05 1004.27 1002.36 1000.33 998.20 996.04 993.89 991.84 989.95 988.28 986.86 985.75 984.93 984.40
1025.61 1025.56 1025.46 1025.30 1025.10 1024.84 1024.52 1024.15 1023.71 1023.20 1022.61 1021.94 1021.16 1020.28 1019.31 1018.25 1017.13 1015.96 1014.75 1013.51 1012.25 1010.94 1009.59 1008.16 1006.62 1004.98 1003.21 1001.32 999.34 997.31 995.28 993.31 991.45 989.77 988.31 987.09 986.13 985.43
1025.36 1025.39 1025.37 1025.29 1025.16 1024.96 1024.69 1024.35 1023.93 1023.43 1022.83 1022.13 1021.33 1020.44 1019.46 1018.40 1017.29 1016.14 1014.97 1013.77 1012.57 1011.34 1010.08 1008.75 1007.35 1005.85 1004.24 1002.53 1000.73 998.88 997.01 995.17 993.41 991.78 990.32 989.06 988.01 987.19
1025.05 1025.13 1025.17 1025.16 1025.09 1024.95 1024.74 1024.44 1024.05 1023.56 1022.98 1022.29 1021.51 1020.62 1019.66 1018.62 1017.53 1016.42 1015.28 1014.14 1013.00 1011.84 1010.66 1009.45 1008.17 1006.82 1005.38 1003.85 1002.25 1000.59 998.91 997.23 995.61 994.09 992.69 991.45 990.38 989.50
1024.67 1024.78 1024.86 1024.89 1024.87 1024.77 1024.60 1024.35 1024.00 1023.55 1023.01 1022.36 1021.61 1020.76 1019.84 1018.85 1017.81 1016.74 1015.65 1014.57 1013.49 1012.40 1011.31 1010.19 1009.03 1007.82 1006.54 1005.19 1003.77 1002.31 1000.82 999.33 997.88 996.50 995.21 994.04 993.02 992.16
1024.23 1024.35 1024.44 1024.49 1024.48 1024.41 1024.28 1024.06 1023.76 1023.36 1022.87 1022.27 1021.58 1020.80 1019.94 1019.01 1018.05 1017.04 1016.03 1015.01 1013.99 1012.98 1011.96 1010.93 1009.88 1008.79 1007.65 1006.46 1005.22 1003.94 1002.64 1001.34 1000.06 998.84 997.69 996.65 995.72 994.93
1023.75 1023.85 1023.92 1023.96 1023.95 1023.89 1023.77 1023.58 1023.32 1022.97 1022.54 1022.01 1021.40 1020.69 1019.92 1019.08 1018.20 1017.28 1016.34 1015.40 1014.46 1013.53 1012.59 1011.64 1010.68 1009.69 1008.67 1007.62 1006.53 1005.41 1004.28 1003.15 1002.05 1000.99 1000.00 999.10 998.30 997.62
1023.21 1023.28 1023.32 1023.33 1023.31 1023.24 1023.12 1022.95 1022.72 1022.42 1022.04 1021.58 1021.04 1020.43 1019.75 1019.00 1018.22 1017.40 1016.56 1015.71 1014.85 1014.00 1013.15 1012.29 1011.41 1010.52 1009.60 1008.66 1007.69 1006.72 1005.73 1004.76 1003.81 1002.91 1002.07 1001.31 1000.65 1000.09
Thickness
5547 5547 5547 5548 5547 5546 5544 5542 5540 5538 5539 5539 5538 5539 5536 5534 5533 5530 5528 5526 5523 5521 5520 5518 5516 5515 5514 5513 5512 5512 5513 5512 5513 5514 5514 5514 5514 5515
5537 5537 5538 5538 5537 5536 5534 5533 5532 5531 5530 5530 5529 5528 5527 5524 5522 5520 5518 5516 5514 5512 5511 5509 5508 5506 5505 5504 5503 5503 5503 5503 5503 5503 5504 5503 5503 5503
5528 5528 5528 5528 5527 5526 5525 5523 5522 5521 5520 5519 5518 5517 5515 5513 5511 5509 5508 5507 5505 5503 5502 5500 5499 5497 5496 5495 5494 5493 5493 5493 5493 5493 5492 5492 5492 5492
5518 5518 5518 5518 5517 5516 5515 5514 5513 5512 5510 5508 5507 5505 5504 5503 5501 5499 5498 5497 5496 5494 5493 5491 5489 5488 5486 5485 5485 5484 5483 5483 5483 5482 5482 5482 5482 5481
5508 5508 5509 5509 5508 5507 5506 5505 5504 5503 5501 5499 5497 5495 5493 5492 5489 5488 5487 5486 5484 5484 5483 5481 5480 5479 5477 5476 5475 5474 5474 5473 5473 5472 5471 5470 5470 5469
5499 5500 5500 5500 5499 5498 5497 5496 5495 5493 5491 5490 5488 5485 5482 5481 5478 5476 5475 5474 5473 5473 5473 5472 5470 5469 5467 5467 5467 5466 5464 5463 5462 5461 5461 5460 5459 5458
5489 5490 5491 5491 5491 5490 5489 5488 5486 5484 5482 5479 5477 5475 5472 5469 5467 5466 5465 5463 5463 5463 5462 5461 5460 5459 5457 5457 5457 5455 5454 5453 5451 5451 5450 5449 5448 5447
5479 5481 5481 5480 5481 5481 5480 5479 5478 5476 5474 5471 5468 5467 5465 5462 5459 5457 5454 5451 5451 5453 5450 5450 5449 5448 5446 5446 5446 5445 5444 5442 5441 5441 5440 5439 5438 5437
5470 5471 5470 5471 5470 5470 5470 5468 5467 5466 5465 5464 5461 5459 5457 5455 5451 5448 5445 5443 5443 5443 5439 5439 5439 5438 5437 5436 5435 5435 5433 5432 5431 5430 5430 5428 5427 5426
5459 5460 5460 5460 5461 5460 5459 5456 5455 5455 5454 5454 5453 5452 5450 5447 5444 5441 5438 5434 5433 5431 5429 5428 5428 5427 5427 5425 5424 5423 5422 5421 5420 5419 5418 5418 5417 5416
5448 5449 5450 5451 5451 5450 5449 5447 5445 5445 5444 5443 5443 5442 5440 5438 5435 5430 5426 5423 5422 5421 5419 5417 5417 5416 5416 5415 5413 5412 5411 5409 5408 5408 5407 5406 5406 5406
5437 5438 5439 5440 5441 5440 5438 5438 5436 5435 5434 5433 5431 5430 5429 5427 5424 5422 5419 5414 5411 5410 5409 5407 5406 5404 5404 5405 5403 5401 5399 5398 5396 5395 5395 5395 5395 5395
5426 5427 5429 5430 5431 5430 5430 5428 5428 5426 5423 5421 5420 5419 5417 5414 5413 5411 5409 5406 5403 5400 5399 5397 5395 5393 5391 5392 5392 5390 5388 5387 5386 5384 5384 5384 5385 5385
5417 5417 5418 5420 5421 5421 5419 5419 5417 5415 5412 5410 5408 5407 5405 5403 5402 5400 5398 5396 5394 5392 5390 5388 5386 5384 5381 5380 5381 5381 5378 5376 5375 5375 5374 5375 5376 5376
5406 5407 5408 5409 5409 5409 5408 5407 5406 5404 5402 5400 5398 5396 5394 5392 5390 5388 5387 5386 5384 5382 5380 5379 5377 5375 5372 5371 5370 5369 5368 5367 5366 5365 5365 5366 5367 5368
5394 5396 5397 5396 5396 5397 5396 5395 5394 5393 5391 5389 5387 5384 5382 5381 5380 5379 5377 5376 5373 5371 5370 5369 5367 5365 5363 5361 5360 5359 5358 5356 5357 5357 5357 5358 5360 5360
5385 5384 5384 5384 5384 5384 5384 5383 5382 5381 5379 5378 5376 5374 5373 5371 5370 5369 5367 5366 5364 5362 5360 5359 5357 5355 5353 5351 5351 5350 5349 5348 5348 5348 5348 5350 5352 5354
5375 5374 5374 5374 5374 5374 5373 5372 5371 5370 5369 5368 5366 5365 5363 5362 5360 5359 5358 5357 5354 5352 5350 5349 5348 5347 5345 5342 5342 5341 5340 5340 5340 5340 5341 5342 5345 5347
5364 5364 5364 5364 5364 5363 5363 5363 5361 5360 5359 5358 5357 5355 5354 5352 5350 5349 5348 5346 5344 5342 5340 5339 5338 5337 5335 5335 5333 5332 5331 5331 5331 5332 5333 5334 5336 5339
5354 5354 5354 5354 5354 5353 5353 5353 5352 5350 5349 5348 5347 5346 5344 5343 5341 5340 5338 5336 5334 5332 5331 5329 5328 5327 5326 5325 5324 5323 5322 5322 5323 5324 5326 5328 5329 5332
5345 5344 5344 5344 5344 5344 5344 5343 5342 5342 5341 5339 5338 5337 5336 5334 5332 5331 5329 5328 5326 5324 5322 5320 5319 5318 5317 5316 5315 5315 5315 5315 5315 5316 5318 5320 5322 5324
5336 5335 5335 5334 5334 5334 5334 5334 5333 5332 5331 5330 5329 5329 5327 5325 5323 5322 5320 5318 5316 5314 5312 5310 5310 5309 5309 5308 5307 5307 5308 5309 5310 5311 5312 5312 5312 5314
5327 5327 5326 5326 5326 5326 5326 5325 5324 5323 5322 5321 5320 5319 5318 5316 5315 5313 5311 5309 5307 5305 5303 5302 5301 5301 5300 5300 5299 5300 5300 5302 5303 5305 5307 5309 5309 5310